Details From HBBA - Bujumbura Intl
To FEFF - Bangui M Poko
Flight Number -
Tags Generated
Created
Modified
Stats Distance 797 nm / 1,476 km
Max Altitude 0 ft / 0 m
Waypoints 3
Social Downloads 2
Likes 0
Share VATSIM

Download

Looking for another format? Having issues loading an existing format? Contact us
Advertisement - Login to hide

Notes

Generated

Route

HBBA BP FEFF

ID Type Via Altitude Latitude Longitude Leg Dist Tot Dist Heading (true) Name
O HBBA APT - 0 ft / 0 m -3.30799˚ 29.31601˚ - 0 nm - -
BP NDB - 0 ft / 0 m 4.37869˚ 18.52472˚ 795 nm 795 nm 305° / 305° BANGUI M POKO NDB
O FEFF APT - 0 ft / 0 m 4.40983˚ 18.51585˚ 1 nm 797 nm 344° / 344° -

Altitude Profile

Advertisement - Login to hide

Weather


0- 5 10 15 20 25 30 35+ Temperature / ° C

Clouds and Precipitation
Forecast for 2018-05-26 18:00 UTC. Updated 3 hours ago

Ground ~20,000 ft ~40,000 ft Winds

HBBA

Details ICAO HBBA (BJM)
Name BUJUMBURA INTL
Region Burundi
Timezone Africa/Bujumbura (UTC+2.0)
Stats Elevation 2,582 ft / 787 m (AMSL)
Location -3.324018° 29.318521°
Runways 1
Magnetic Variation 0.922° E

METAR

Not found

TAF

TAF TAF HBBA 261700Z 2618/2724 36003KT 9999 FEW025 BKN100 TEMPO RA BECMG 2702/2704 03005KT 9999 SCT020 BKN100 BECMG2707/2709 18010G20KT 9999 FEW025 FEW030CB PROB30 TEMPO 2710/2718 08010G25KT 5000 TSRA OR SHRA SCT025CB SCT100 BECMG 2718/2720 00000KT CAVOK

Decode

Departure Runways

ID Width Length Bearing (true) Bearing (mag) Surface Threshold Offset Overrun Length
17 148 ft / 45 m 11,841 ft / 3,609 m 171.10° 170.18° Asphalt 0 ft / 0 m 60 ft / 18 m
35 148 ft / 45 m 11,841 ft / 3,609 m 351.10° 350.18° Asphalt 0 ft / 0 m 60 ft / 18 m

FEFF

Details ICAO FEFF (BGF)
Name BANGUI M POKO
Region Central African Republic
Timezone Africa/Bangui (UTC+1.0)
Stats Elevation 1,208 ft / 368 m (AMSL)
Location 4.398474° 18.518784°
Runways 1
Magnetic Variation 1.072° E

METAR

FEFF 262000Z VRB02KT 8000 FEW013 24/23 Q1012 NOSIG

Decode

TAF

TAF FEFF 261700Z 2618/2724 22004KT 8000 TS FEW013 FEW033CB BECMG 2620/2622 NSW BECMG 2700/2702 BKN013 PROB30 TEMPO 2703/2707 VRB15KT 4000 TSRA BKN010 SCT033CB BECMG 2708/2710 BKN016

Decode

Destination Runways

ID Width Length Bearing (true) Bearing (mag) Surface Threshold Offset Overrun Length
17 148 ft / 45 m 8,559 ft / 2,609 m 165.55° 164.48° Asphalt 0 ft / 0 m 131 ft / 40 m
35 148 ft / 45 m 8,559 ft / 2,609 m 345.55° 344.48° Asphalt 0 ft / 0 m 131 ft / 40 m

Approach Navaids

Runway Type Ident Frequency Range Bearing (true) Bearing (mag) Slope Elevation
35 Localiser BGI 110.30 MHz 18 nm / 33 km 347.07° 346.00° - 1,211 ft / 369 m (AMSL)
35 Glidescope BGI 110.30 MHz 10 nm / 19 km 345.55° 344.48° 3.00° 1,201 ft / 366 m (AMSL)
35 DME BGI 110.30 MHz 18 nm / 33 km - - - 1,201 ft / 366 m (AMSL)